Погода в Сент-Питерсберге

США     27°46′38″N   82°38′19″W
темп.,
°C
ветер,
м/с
пор.,
м/с
влажн.,
%
обл.,
%
осадки,
мм/ч
давл.,
гПа
погр.,
м
16 октября, сб
сб1623:00+28с44645 0.0 1014640
02:00+26в447192 0.0 1014532
05:00+26вюв21759 0.0 1014275
08:00+26ссз12731 0.0 1015393
11:00+27ссз12650 0.0 1015725
14:00+29зсз44630 0.1 1013962
17:00+28зсз55620 0.1 1012898
20:00+28зсз556669 0.1 1014692
17 октября, вс
вс1723:00+27сз567192 0.8 1015490
02:00+27сз5670100 1.8 1014874
05:00+24ссв997417 0.1 1014615
08:00+22ссв895717 0.1 1016491
11:00+23ссв664735 0.0 1017597
14:00+26ссв44445 0.0 1016884
17:00+27с55450 0.0 10151206
20:00+27ссв66490 0.0 10161094
18 октября, пн
пн1823:00+24всв99610 0.0 1018805
02:00+22всв8963100 0.0 1018620
05:00+22всв8965100 0.0 1017639
08:00+22всв896578 0.0 1019661
11:00+23всв885942 0.0 1019938
14:00+26в6646100 0.0 10181432
17:00+27всв66435 0.0 10161686
20:00+26в775049 0.0 10171331
19 октября, вт
вт1923:00+24в896094 0.0 1019943
02:00+24в7861100 0.0 1019851
05:00+23всв68632 0.0 1019715
08:00+23всв78640 0.0 1020654
11:00+24всв78575 0.0 10211028
14:00+27в67470 0.0 10191594
17:00+28в57450 0.0 10181951
20:00+27в88530 0.0 10201351
20 октября, ср
ср2023:00+25в810600 0.0 1021943
02:00+24в686445 0.0 1020711
05:00+24в576433 0.0 1020545
08:00+24в676720 0.0 1022507
11:00+26в77563 0.0 10221084
14:00+28в56482 0.0 10201702
17:00+29всв56502 0.0 10181386
20:00+27в9858100 0.0 1020795